Location: Aultman
(40.9284°N, 81.4173°W)
Time: 08:21:57
(UTC+00:00)

COSMOS 2455 - Pass Details

Date: 24 January 2021
Orbit: 901 x 908 km, 67.1° (Epoch: 02 March)

Event Time Altitude Azimuth Distance (km) Brightness Sun altitude
Rises 23:03:21 0° 224° (SW) 3,518 7.2 -6.1°
Reaches altitude 10° 23:05:56 10° 229° (SW) 2,582 6.6 -6.5°
Maximum altitude 23:11:44 51° 304° (NW) 1,136 3.7 -7.6°
Drops below altitude 10° 23:17:36 10° 20° (NNE) 2,599 4.9 -8.6°
Sets 23:20:12 0° 26° (NNE) 3,544 5.5 -9.1°
